DW5721 Weather Reports


time (UTC)temp
F
wind
direction
speed
knots
gust
knots
rain 1hr
in
rain 24hr
in
rain mn
in
humidity
%
barometer
mb
20260506044233 44 28 0.0 0.0 0.00 0.07 0.04 90 1006.5
20260506043254 44 28 0.0 0.0 0.00 0.07 0.04 90 1006.5
20260506042248 44 28 0.0 0.0 0.00 0.07 0.04 90 1006.6
20260506041258 44 254 0.0 0.0 0.00 0.07 0.04 90 1006.7
20260506040303 44 254 0.0 0.0 0.00 0.07 0.04 90 1006.7
20260505150849 56 169 0.0 0.0 0.00 0.00 0.00 53 1008.3
20260505130225 58 95 0.9 3.5 0.00 0.00 0.00 50 1008.4
20260505124141 59 78 0.9 0.0 0.00 0.00 0.00 49 1008.4
20260505123140 59 181 0.9 12.2 0.00 0.00 0.00 49 1008.6
20260505122150 58 55 2.6 12.2 0.00 0.00 0.00 49 1008.6
20260505121212 57 49 0.9 8.7 0.00 0.00 0.00 49 1008.8
20260505120225 58 203 0.0 6.1 0.00 0.00 0.00 50 1008.9
20260505115204 57 183 0.9 10.4 0.00 0.00 0.00 51 1008.9
20260505114131 57 109 0.0 4.3 0.00 0.00 0.00 52 1008.8
20260505113102 56 130 0.9 5.2 0.00 0.00 0.00 49 1009.0
20260505112034 56 130 0.0 0.0 0.00 0.00 0.00 51 1009.1
20260505111015 55 78 0.0 0.0 0.00 0.00 0.00 54 1009.2
20260505102036 53 63 0.0 2.6 0.00 0.00 0.00 57 1009.3
20260505101054 53 96 0.9 9.6 0.00 0.00 0.00 57 1009.4
20260505100025 53 142 0.9 9.6 0.00 0.00 0.00 57 1009.3
20260505095044 53 89 0.0 0.0 0.00 0.00 0.00 59 1009.2
20260505094102 54 190 0.0 0.0 0.00 0.00 0.00 61 1009.1
20260505093059 53 190 0.0 2.6 0.00 0.00 0.00 62 1009.0
20260505092035 53 93 1.7 11.3 0.00 0.00 0.00 62 1009.2
20260505091041 53 71 0.9 3.5 0.00 0.00 0.00 63 1009.2
20260505090014 52 84 2.6 13.0 0.00 0.00 0.00 66 1009.2
20260505084949 52 149 0.9 12.2 0.00 0.00 0.00 67 1009.4
20260505083957 52 76 0.9 11.3 0.00 0.00 0.00 65 1009.0
20260505083019 52 62 2.6 11.3 0.00 0.00 0.00 61 1009.1
20260505082013 53 103 0.9 8.7 0.00 0.00 0.00 59 1009.1
20260505075842 53 136 0.0 4.3 0.00 0.00 0.00 59 1009.2
20260505074818 54 80 0.0 5.2 0.00 0.00 0.00 60 1009.2
20260505073802 53 63 0.0 0.0 0.00 0.00 0.00 60 1009.2
20260505072726 53 103 0.0 0.0 0.00 0.00 0.00 60 1009.3
20260505071732 52 72 0.0 0.0 0.00 0.00 0.00 61 1009.5
20260505065554 52 119 0.0 0.0 0.00 0.00 0.00 61 1009.6
20260505064604 52 215 0.0 0.0 0.00 0.00 0.00 60 1009.6
20260505063531 52 267 0.0 6.1 0.00 0.00 0.00 60 1009.7
20260505062526 52 218 0.0 0.0 0.00 0.00 0.00 61 1009.6
20260505061502 51 257 0.0 0.9 0.00 0.00 0.00 61 1009.6
20260505060445 51 200 0.0 0.0 0.00 0.00 0.00 62 1009.6